Hlavní strana
METAR-TAF:

METAR-TAF

Letiště :

Macon County Airport

Franklin, Severní Karolína, Spojené státy americké

zeměpisná šířka: 35-13N, zeměpisná délka: 083-25W, výška: 616 m

Aktuální stav počasí

Zpráva byla vytvořena před 29 minutami, v 00:00 UTC
Severoseverozápadní vítr 6 kt
Teplota 13°C
Vlhkost vzduchu 72%
Tlak 1016 hPa
Viditelnost: 16.1 km
Jasno

METAR: K1A5 210000Z AUTO 34006KT 10SM CLR 13/08 A3000 RMK AO2 T01290075

Čas: 20:29 (00:29 UTC)


TAF: chybějící

Stav a předpovědi počasí z více než 4 000 letišť (zprávy METAR a TAF).

Červené a žluté tečky na mapě představují dostupné meteorologické stanice.

Když kurzor umístíte na tečku, zobrazí se název stanice.

Pak kliknutím zobrazíte stav a předpověď počasí.

Chcete-li změnit mapu, kliknutím na zelené tlačítko se znaménkem +mapu přiblížíte, kliknutím na zelené tlačítko se znaménkem – mapu oddálíte a kliknutím na zelené šipky přejdete na sousední mapy.


METAR-TAF: